Time,TemperatureF,DewpointF,PressureIn,WindDirection,WindDirectionDegrees,WindSpeedMPH,WindSpeedGustMPH,Humidity,HourlyPrecipIn,Conditions,Clouds,dailyrainin,SoftwareType,DateUTC
2013-06-07 00:03:00,72.0,70.0,29.79,ENE,68,1.0,-999.0,94,-99.99,,,-99.99,,2013-06-07 04:03:00,
2013-06-07 00:12:00,71.0,69.0,29.78,East,85,3.0,-999.0,95,-99.99,,,-99.99,,2013-06-07 04:12:00,
2013-06-07 00:23:00,71.0,69.0,29.78,East,85,3.0,-999.0,95,-99.99,,,-99.99,,2013-06-07 04:23:00,
2013-06-07 00:33:00,71.0,69.0,29.78,ENE,66,1.0,-999.0,95,-99.99,,,-99.99,,2013-06-07 04:33:00,
2013-06-07 00:42:00,71.0,69.0,29.78,ENE,66,1.0,-999.0,95,-99.99,,,-99.99,,2013-06-07 04:42:00,
2013-06-07 00:53:00,71.0,69.0,29.77,ENE,68,0.0,-999.0,95,-99.99,,,-99.99,,2013-06-07 04:53:00,
2013-06-07 01:03:00,71.0,70.0,29.76,SE,143,0.0,-999.0,96,-99.99,,,-99.99,,2013-06-07 05:03:00,
2013-06-07 01:12:00,71.0,70.0,29.76,SE,143,0.0,-999.0,96,-99.99,,,-99.99,,2013-06-07 05:12:00,
2013-06-07 01:22:00,71.0,70.0,29.75,SE,143,0.0,-999.0,96,-99.99,,,-99.99,,2013-06-07 05:22:00,
2013-06-07 01:32:00,72.0,71.0,29.73,SE,143,0.0,-999.0,96,-99.99,,,-99.99,,2013-06-07 05:32:00,
2013-06-07 01:42:00,72.0,71.0,29.73,SE,143,0.0,-999.0,96,-99.99,,,-99.99,,2013-06-07 05:42:00,
2013-06-07 01:52:00,73.0,72.0,29.73,SE,141,0.0,-999.0,96,-99.99,,,-99.99,,2013-06-07 05:52:00,
2013-06-07 02:02:00,73.0,72.0,29.72,SE,140,0.0,-999.0,96,-99.99,,,-99.99,,2013-06-07 06:02:00,
2013-06-07 02:12:00,73.0,72.0,29.72,SE,140,0.0,-999.0,96,-99.99,,,-99.99,,2013-06-07 06:12:00,
2013-06-07 02:22:00,73.0,72.0,29.70,SE,140,0.0,-999.0,96,-99.99,,,-99.99,,2013-06-07 06:22:00,
2013-06-07 02:32:00,73.0,72.0,29.69,SSE,161,0.0,-999.0,97,-99.99,,,-99.99,,2013-06-07 06:32:00,
2013-06-07 02:42:00,73.0,72.0,29.69,SSE,161,0.0,-999.0,97,-99.99,,,-99.99,,2013-06-07 06:42:00,
2013-06-07 02:52:00,74.0,73.0,29.69,South,182,5.0,-999.0,96,-99.99,,,-99.99,,2013-06-07 06:52:00,
2013-06-07 03:02:00,74.0,73.0,29.68,SSE,168,5.0,-999.0,96,-99.99,,,-99.99,,2013-06-07 07:02:00,
2013-06-07 03:12:00,74.0,73.0,29.68,SSE,168,5.0,-999.0,96,-99.99,,,-99.99,,2013-06-07 07:12:00,
2013-06-07 03:22:00,74.0,72.0,29.67,South,181,4.0,-999.0,95,-99.99,,,-99.99,,2013-06-07 07:22:00,
2013-06-07 03:32:00,75.0,73.0,29.66,South,181,4.0,-999.0,94,-99.99,,,-99.99,,2013-06-07 07:32:00,
2013-06-07 03:42:00,75.0,73.0,29.66,South,181,4.0,-999.0,94,-99.99,,,-99.99,,2013-06-07 07:42:00,
2013-06-07 03:52:00,75.0,73.0,29.66,SSE,167,6.0,-999.0,94,-99.99,,,-99.99,,2013-06-07 07:52:00,
2013-06-07 04:02:00,75.0,73.0,29.65,South,185,6.0,-999.0,94,-99.99,,,-99.99,,2013-06-07 08:02:00,
2013-06-07 04:12:00,75.0,73.0,29.65,South,185,6.0,-999.0,94,-99.99,,,-99.99,,2013-06-07 08:12:00,
2013-06-07 04:22:00,74.0,72.0,29.65,South,186,10.0,-999.0,94,-99.99,,,-99.99,,2013-06-07 08:22:00,
2013-06-07 04:32:00,74.0,72.0,29.64,South,181,4.0,-999.0,95,-99.99,,,-99.99,,2013-06-07 08:32:00,
2013-06-07 04:43:00,74.0,72.0,29.64,South,181,4.0,-999.0,95,-99.99,,,-99.99,,2013-06-07 08:43:00,
2013-06-07 04:52:00,74.0,72.0,29.64,SSE,168,11.0,-999.0,95,-99.99,,,-99.99,,2013-06-07 08:52:00,
2013-06-07 05:02:00,74.0,72.0,29.63,SSE,168,8.0,-999.0,95,-99.99,,,-99.99,,2013-06-07 09:02:00,
2013-06-07 05:12:00,74.0,72.0,29.63,SSE,168,8.0,-999.0,95,-99.99,,,-99.99,,2013-06-07 09:12:00,
2013-06-07 05:22:00,74.0,72.0,29.63,SSE,148,7.0,-999.0,94,-99.99,,,-99.99,,2013-06-07 09:22:00,
2013-06-07 05:32:00,74.0,72.0,29.63,South,175,6.0,-999.0,94,-99.99,,,-99.99,,2013-06-07 09:32:00,
2013-06-07 05:43:00,74.0,72.0,29.63,South,175,6.0,-999.0,94,-99.99,,,-99.99,,2013-06-07 09:43:00,
2013-06-07 05:53:00,74.0,72.0,29.62,SSE,165,4.0,-999.0,94,-99.99,,,-99.99,,2013-06-07 09:53:00,
2013-06-07 06:03:00,75.0,73.0,29.62,SE,138,6.0,-999.0,93,-99.99,,,-99.99,,2013-06-07 10:03:00,
2013-06-07 06:13:00,75.0,73.0,29.62,SE,138,6.0,-999.0,93,-99.99,,,-99.99,,2013-06-07 10:13:00,
2013-06-07 06:23:00,75.0,73.0,29.61,South,182,6.0,-999.0,92,-99.99,,,-99.99,,2013-06-07 10:23:00,
2013-06-07 06:33:00,75.0,72.0,29.60,SSE,148,6.0,-999.0,91,-99.99,,,-99.99,,2013-06-07 10:33:00,
2013-06-07 06:42:00,75.0,72.0,29.60,SSE,148,6.0,-999.0,91,-99.99,,,-99.99,,2013-06-07 10:42:00,
2013-06-07 06:52:00,75.0,72.0,29.61,South,184,10.0,-999.0,90,-99.99,,,-99.99,,2013-06-07 10:52:00,
2013-06-07 07:02:00,74.0,71.0,29.61,SSE,157,8.0,-999.0,91,-99.99,,,-99.99,,2013-06-07 11:02:00,
2013-06-07 07:12:00,74.0,71.0,29.61,SSE,157,8.0,-999.0,91,-99.99,,,-99.99,,2013-06-07 11:12:00,
2013-06-07 07:22:00,74.0,72.0,29.60,South,175,7.0,-999.0,92,-99.99,,,-99.99,,2013-06-07 11:22:00,
2013-06-07 07:32:00,74.0,72.0,29.59,South,189,8.0,-999.0,92,-99.99,,,-99.99,,2013-06-07 11:32:00,
2013-06-07 07:42:00,74.0,72.0,29.59,South,189,8.0,-999.0,92,-99.99,,,-99.99,,2013-06-07 11:42:00,
2013-06-07 07:52:00,75.0,72.0,29.59,South,179,7.0,-999.0,91,-99.99,,,-99.99,,2013-06-07 11:52:00,
2013-06-07 08:02:00,75.0,72.0,29.58,South,178,7.0,-999.0,91,-99.99,,,-99.99,,2013-06-07 12:02:00,
2013-06-07 08:12:00,75.0,72.0,29.58,South,178,7.0,-999.0,91,-99.99,,,-99.99,,2013-06-07 12:12:00,
2013-06-07 08:22:00,76.0,72.0,29.57,SSE,147,12.0,-999.0,88,-99.99,,,-99.99,,2013-06-07 12:22:00,
2013-06-07 08:32:00,76.0,72.0,29.57,SSW,196,11.0,-999.0,86,-99.99,,,-99.99,,2013-06-07 12:32:00,
2013-06-07 08:42:00,76.0,72.0,29.57,SSW,196,11.0,-999.0,86,-99.99,,,-99.99,,2013-06-07 12:42:00,
2013-06-07 08:52:00,76.0,72.0,29.56,SE,145,9.0,-999.0,86,-99.99,,,-99.99,,2013-06-07 12:52:00,
2013-06-07 09:02:00,75.0,72.0,29.57,SSW,208,10.0,-999.0,89,-99.99,,,-99.99,,2013-06-07 13:02:00,
2013-06-07 09:13:00,75.0,72.0,29.57,SSW,208,10.0,-999.0,89,-99.99,,,-99.99,,2013-06-07 13:13:00,
2013-06-07 09:22:00,75.0,72.0,29.57,SSE,157,11.0,-999.0,90,-99.99,,,-99.99,,2013-06-07 13:22:00,
2013-06-07 09:32:00,75.0,71.0,29.56,SSE,150,9.0,-999.0,88,-99.99,,,-99.99,,2013-06-07 13:32:00,
2013-06-07 09:42:00,75.0,71.0,29.56,SSE,150,9.0,-999.0,88,-99.99,,,-99.99,,2013-06-07 13:42:00,
2013-06-07 09:52:00,76.0,72.0,29.57,SW,217,9.0,-999.0,87,-99.99,,,-99.99,,2013-06-07 13:52:00,
2013-06-07 10:02:00,75.0,72.0,29.56,SSW,212,8.0,-999.0,91,-99.99,,,-99.99,,2013-06-07 14:02:00,
2013-06-07 10:12:00,75.0,72.0,29.56,SSW,212,8.0,-999.0,91,-99.99,,,-99.99,,2013-06-07 14:12:00,
2013-06-07 10:23:00,75.0,71.0,29.56,SSW,203,12.0,-999.0,87,-99.99,,,-99.99,,2013-06-07 14:23:00,
2013-06-07 10:33:00,76.0,70.0,29.56,SSW,203,14.0,-999.0,83,-99.99,,,-99.99,,2013-06-07 14:33:00,
2013-06-07 10:42:00,76.0,70.0,29.55,South,185,13.0,-999.0,83,-99.99,,,-99.99,,2013-06-07 14:42:00,
2013-06-07 10:52:00,76.0,70.0,29.55,South,185,13.0,-999.0,83,-99.99,,,-99.99,,2013-06-07 14:52:00,
2013-06-07 11:03:00,77.0,71.0,29.55,SE,144,13.0,-999.0,81,-99.99,,,-99.99,,2013-06-07 15:03:00,
2013-06-07 11:12:00,77.0,71.0,29.55,SE,144,13.0,-999.0,81,-99.99,,,-99.99,,2013-06-07 15:12:00,
2013-06-07 11:23:00,76.0,69.0,29.55,SSE,162,14.0,-999.0,80,-99.99,,,-99.99,,2013-06-07 15:23:00,
2013-06-07 11:33:00,75.0,70.0,29.56,SW,223,14.0,-999.0,85,-99.99,,,-99.99,,2013-06-07 15:33:00,
2013-06-07 11:43:00,75.0,70.0,29.56,SW,223,14.0,-999.0,85,-99.99,,,-99.99,,2013-06-07 15:43:00,
2013-06-07 11:53:00,76.0,71.0,29.56,SW,219,10.0,-999.0,84,-99.99,,,-99.99,,2013-06-07 15:53:00,
2013-06-07 12:03:00,75.0,71.0,29.57,SW,215,9.0,-999.0,88,-99.99,,,-99.99,,2013-06-07 16:03:00,
2013-06-07 12:13:00,75.0,71.0,29.57,SW,215,9.0,-999.0,88,-99.99,,,-99.99,,2013-06-07 16:13:00,
2013-06-07 12:22:00,74.0,71.0,29.58,SSW,209,9.0,-999.0,91,-99.99,,,-99.99,,2013-06-07 16:22:00,
2013-06-07 12:33:00,74.0,72.0,29.58,West,261,9.0,-999.0,92,-99.99,,,-99.99,,2013-06-07 16:33:00,
2013-06-07 12:43:00,74.0,72.0,29.58,West,261,9.0,-999.0,92,-99.99,,,-99.99,,2013-06-07 16:43:00,
2013-06-07 12:52:00,74.0,72.0,29.60,SW,232,7.0,-999.0,92,-99.99,,,-99.99,,2013-06-07 16:52:00,
2013-06-07 13:03:00,74.0,72.0,29.60,SW,222,11.0,-999.0,92,-99.99,,,-99.99,,2013-06-07 17:03:00,
2013-06-07 13:13:00,74.0,72.0,29.60,SW,222,11.0,-999.0,92,-99.99,,,-99.99,,2013-06-07 17:13:00,
2013-06-07 13:23:00,74.0,72.0,29.61,SW,227,9.0,-999.0,92,-99.99,,,-99.99,,2013-06-07 17:23:00,
2013-06-07 13:32:00,74.0,71.0,29.61,SSW,213,8.0,-999.0,90,-99.99,,,-99.99,,2013-06-07 17:32:00,
2013-06-07 13:43:00,74.0,71.0,29.61,SSW,213,8.0,-999.0,90,-99.99,,,-99.99,,2013-06-07 17:43:00,
2013-06-07 13:52:00,75.0,71.0,29.62,WSW,240,9.0,-999.0,87,-99.99,,,-99.99,,2013-06-07 17:52:00,
2013-06-07 14:09:00,75.0,70.0,29.62,WSW,247,8.0,-999.0,85,-99.99,,,-99.99,,2013-06-07 18:09:00,
2013-06-07 14:20:00,75.0,70.0,29.62,WSW,247,8.0,-999.0,85,-99.99,,,-99.99,,2013-06-07 18:20:00,
2013-06-07 14:26:00,76.0,71.0,29.64,SW,224,7.0,-999.0,84,-99.99,,,-99.99,,2013-06-07 18:26:00,
2013-06-07 14:37:00,75.0,71.0,29.66,WSW,248,7.0,-999.0,87,-99.99,,,-99.99,,2013-06-07 18:37:00,
2013-06-07 14:45:00,75.0,71.0,29.66,WSW,248,7.0,-999.0,87,-99.99,,,-99.99,,2013-06-07 18:45:00,
2013-06-07 14:56:00,76.0,71.0,29.66,SW,223,7.0,-999.0,85,-99.99,,,-99.99,,2013-06-07 18:56:00,
2013-06-07 15:08:00,76.0,70.0,29.67,WSW,258,8.0,-999.0,82,-99.99,,,-99.99,,2013-06-07 19:08:00,
2013-06-07 15:15:00,76.0,70.0,29.67,WSW,258,8.0,-999.0,82,-99.99,,,-99.99,,2013-06-07 19:15:00,
2013-06-07 15:29:00,76.0,70.0,29.68,SW,232,8.0,-999.0,82,-99.99,,,-99.99,,2013-06-07 19:29:00,
2013-06-07 15:38:00,76.0,70.0,29.69,West,271,8.0,-999.0,81,-99.99,,,-99.99,,2013-06-07 19:38:00,
2013-06-07 15:48:00,76.0,70.0,29.69,West,271,8.0,-999.0,81,-99.99,,,-99.99,,2013-06-07 19:48:00,
2013-06-07 15:55:00,76.0,70.0,29.70,West,265,6.0,-999.0,81,-99.99,,,-99.99,,2013-06-07 19:55:00,
2013-06-07 16:08:00,77.0,69.0,29.70,SW,236,7.0,-999.0,77,-99.99,,,-99.99,,2013-06-07 20:08:00,
2013-06-07 16:16:00,77.0,69.0,29.70,SW,236,7.0,-999.0,77,-99.99,,,-99.99,,2013-06-07 20:16:00,
2013-06-07 16:26:00,77.0,69.0,29.71,WNW,288,7.0,-999.0,77,-99.99,,,-99.99,,2013-06-07 20:26:00,
2013-06-07 16:39:00,78.0,69.0,29.72,WNW,287,9.0,-999.0,75,-99.99,,,-99.99,,2013-06-07 20:39:00,
2013-06-07 16:47:00,78.0,69.0,29.72,WNW,287,9.0,-999.0,75,-99.99,,,-99.99,,2013-06-07 20:47:00,
2013-06-07 16:58:00,79.0,70.0,29.72,WNW,285,6.0,-999.0,73,-99.99,,,-99.99,,2013-06-07 20:58:00,
2013-06-07 17:05:00,80.0,69.0,29.73,WSW,256,6.0,-999.0,70,-99.99,,,-99.99,,2013-06-07 21:05:00,
2013-06-07 17:19:00,80.0,69.0,29.73,WSW,256,6.0,-999.0,70,-99.99,,,-99.99,,2013-06-07 21:19:00,
2013-06-07 17:28:00,80.0,69.0,29.73,SW,215,7.0,-999.0,70,-99.99,,,-99.99,,2013-06-07 21:28:00,
2013-06-07 17:40:00,80.0,69.0,29.75,West,278,6.0,-999.0,70,-99.99,,,-99.99,,2013-06-07 21:40:00,
2013-06-07 18:08:00,81.0,69.0,29.74,WSW,251,6.0,-999.0,67,-99.99,,,-99.99,,2013-06-07 22:08:00,
2013-06-07 18:22:00,81.0,69.0,29.74,WSW,251,6.0,-999.0,67,-99.99,,,-99.99,,2013-06-07 22:22:00,
2013-06-07 18:28:00,81.0,69.0,29.75,West,263,5.0,-999.0,67,-99.99,,,-99.99,,2013-06-07 22:28:00,
2013-06-07 18:38:00,81.0,69.0,29.76,West,265,5.0,-999.0,67,-99.99,,,-99.99,,2013-06-07 22:38:00,
2013-06-07 18:47:00,81.0,69.0,29.76,West,265,5.0,-999.0,67,-99.99,,,-99.99,,2013-06-07 22:47:00,
2013-06-07 19:00:00,81.0,69.0,29.76,West,280,5.0,-999.0,66,-99.99,,,-99.99,,2013-06-07 23:00:00,
2013-06-07 19:09:00,81.0,69.0,29.76,SW,227,3.0,-999.0,67,-99.99,,,-99.99,,2013-06-07 23:09:00,
2013-06-07 19:19:00,81.0,69.0,29.76,SW,227,3.0,-999.0,67,-99.99,,,-99.99,,2013-06-07 23:19:00,
2013-06-07 19:30:00,81.0,69.0,29.76,WSW,239,5.0,-999.0,68,-99.99,,,-99.99,,2013-06-07 23:30:00,
2013-06-07 19:37:00,81.0,70.0,29.76,WSW,246,3.0,-999.0,69,-99.99,,,-99.99,,2013-06-07 23:37:00,
2013-06-07 20:04:00,81.0,70.0,29.76,WSW,246,3.0,-999.0,69,-99.99,,,-99.99,,2013-06-08 00:04:00,
2013-06-07 20:18:00,80.0,70.0,29.78,South,172,1.0,-999.0,72,-99.99,,,-99.99,,2013-06-08 00:18:00,
2013-06-07 20:35:00,79.0,70.0,29.78,South,172,0.0,-999.0,74,-99.99,,,-99.99,,2013-06-08 00:35:00,
2013-06-07 20:45:00,79.0,70.0,29.78,South,172,0.0,-999.0,74,-99.99,,,-99.99,,2013-06-08 00:45:00,
2013-06-07 21:01:00,78.0,70.0,29.79,SSW,206,0.0,-999.0,77,-99.99,,,-99.99,,2013-06-08 01:01:00,
2013-06-07 21:07:00,78.0,71.0,29.80,SSW,206,0.0,-999.0,79,-99.99,,,-99.99,,2013-06-08 01:07:00,
2013-06-07 21:18:00,77.0,71.0,29.81,SSW,203,1.0,-999.0,82,-99.99,,,-99.99,,2013-06-08 01:18:00,
2013-06-07 21:38:00,77.0,71.0,29.82,SSW,208,1.0,-999.0,83,-99.99,,,-99.99,,2013-06-08 01:38:00,
2013-06-07 21:45:00,77.0,71.0,29.82,SSW,208,1.0,-999.0,83,-99.99,,,-99.99,,2013-06-08 01:45:00,
2013-06-07 22:09:00,77.0,71.0,29.83,SSW,199,3.0,-999.0,83,-99.99,,,-99.99,,2013-06-08 02:09:00,
2013-06-07 22:15:00,77.0,71.0,29.83,SSW,199,3.0,-999.0,83,-99.99,,,-99.99,,2013-06-08 02:15:00,
2013-06-07 22:29:00,77.0,71.0,29.84,SSW,213,2.0,-999.0,83,-99.99,,,-99.99,,2013-06-08 02:29:00,
2013-06-07 22:35:00,77.0,71.0,29.85,SSW,206,3.0,-999.0,83,-99.99,,,-99.99,,2013-06-08 02:35:00,
2013-06-07 22:47:00,77.0,71.0,29.86,SSW,210,3.0,-999.0,83,-99.99,,,-99.99,,2013-06-08 02:47:00,
2013-06-07 22:59:00,77.0,71.0,29.86,SSW,210,3.0,-999.0,83,-99.99,,,-99.99,,2013-06-08 02:59:00,
2013-06-07 23:17:00,76.0,70.0,29.86,WSW,240,2.0,-999.0,83,-99.99,,,-99.99,,2013-06-08 03:17:00,
2013-06-07 23:27:00,76.0,70.0,29.86,SW,234,4.0,-999.0,83,-99.99,,,-99.99,,2013-06-08 03:27:00,
2013-06-07 23:37:00,76.0,70.0,29.86,SW,229,3.0,-999.0,83,-99.99,,,-99.99,,2013-06-08 03:37:00,
2013-06-07 23:52:00,76.0,70.0,29.86,SW,229,3.0,-999.0,83,-99.99,,,-99.99,,2013-06-08 03:52:00,